Content
SEND FEEDBACK

Daily
Averages
Monthly
Summary
United States of America

ST. LOUIS - SAINT LOUIS UNIVERSITY, MISSOURI


Home > North America > United States > Missouri
Elevation: 580 feet     Latitude: 38 38N     Longitude: 090 14W

WEATHER
 
SELECT A DAY
Number of Records: 186,374;   Date Range: 1/1/95 - 9/13/14
 
SHARE

PRINT THIS DATA

[ ← Previous Day ]
WEATHER ALMANAC - MARCH 5, 2013
[ Next Day → ]
[ °C ]   °F
Weather ElementAverageHighLow
Temperature34.9 °F41 °F (2:53 am)32 °F (6:50 pm)
Dewpoint27.6 °F33.1 °F (2:53 am)21 °F (2:53 pm)
Humidity75.5 %92 % (9:53 am)55 % (2:53 pm)
Barometer29.97 in30.13 in (11:53 pm)29.79 in (3:18 am)
Wind Speed17.3 mph25.3 mph (2:53 pm)
Wind Gust41.4 mph (2:53 pm)
Weather ElementAverage
Visibility7.4 mi
Wind DirectionWNW (286.9 °)

Weather ElementTotal
Precipitation0.16 in
Heating Degree Days28.5 (Base 65)
Averaged from 36 records on March 5, 2013
WEATHER CONDITIONS BREAKOUT
WIND DIRECTION BREAKOUT
WEATHER BY HOUR - MARCH 5, 2013
[ °C ]   °F
Local TimeTemperatureDewpointHumidityBarometerVisibilityWind DirectionWind SpeedGust SpeedPrecipitationEventsConditions
2:53 AM41.0 °F33.1 °F73 %29.80 in10.0 miNorth (360°)4.6 mphOvercast
3:18 AM39.2 °F32.0 °F75 %29.79 in10.0 miNNE (20°)4.6 mphMostly Cloudy
3:53 AM39.9 °F33.1 °F77 %29.81 in10.0 miCalmOvercast
4:53 AM39.9 °F33.1 °F77 %29.83 in10.0 miWNW (300°)3.5 mphOvercast
5:53 AM39.9 °F32.0 °F73 %29.85 in10.0 miWNW (300°)15.0 mphOvercast
6:05 AM39.2 °F32.0 °F75 %29.85 in10.0 miNW (310°)16.1 mph23.0 mphOvercast
7:53 AM35.1 °F30.9 °F85 %29.88 in6.0 miWNW (300°)17.3 mph24.2 mph0.00 inRainRain
8:53 AM34.0 °F30.9 °F89 %29.92 in2.0 miWNW (290°)13.8 mph0.01 inSnowLight Snow
9:15 AM33.8 °F30.2 °F87 %29.92 in0.8 miNW (310°)15.0 mph23.0 mph0.01 inSnowLight Snow
9:23 AM33.8 °F30.2 °F87 %29.91 in0.8 miWNW (300°)13.8 mph0.02 inSnowLight Snow
9:53 AM33.1 °F30.9 °F92 %29.92 in0.2 miNW (320°)15.0 mph19.6 mph0.05 inFog-SnowSnow
10:07 AM33.8 °F30.2 °F87 %29.92 in0.5 miNW (310°)12.7 mph0.01 inFog-SnowSnow
10:49 AM33.8 °F30.2 °F87 %29.93 in1.2 miWNW (290°)13.8 mph0.03 inSnowLight Snow
10:53 AM33.1 °F30.9 °F92 %29.94 in1.8 miWNW (300°)15.0 mph0.03 inSnowLight Snow
11:11 AM33.8 °F30.2 °F87 %29.93 in2.0 miWNW (300°)15.0 mph0.00 inSnowLight Snow
11:19 AM33.8 °F30.2 °F87 %29.93 in5.0 miNW (310°)23.0 mph28.8 mph0.00 inOvercast
11:53 AM35.1 °F30.9 °F85 %29.94 in8.0 miWNW (300°)23.0 mph32.2 mph0.00 inOvercast
12:53 PM35.1 °F27.0 °F72 %29.95 in10.0 miWNW (300°)20.7 mph31.1 mphOvercast
1:48 PM35.6 °F26.6 °F70 %29.95 in10.0 miWNW (300°)23.0 mph33.4 mphOvercast
1:53 PM37.0 °F26.1 °F65 %29.96 in10.0 miWNW (300°)20.7 mph28.8 mphOvercast
2:53 PM36.0 °F21.0 °F55 %29.99 in10.0 miWNW (300°)25.3 mph41.4 mphOvercast
3:53 PM34.0 °F21.0 °F59 %30.02 in10.0 miWNW (300°)23.0 mph38.0 mphOvercast
4:53 PM34.0 °F21.9 °F61 %30.03 in10.0 miWNW (290°)25.3 mph33.4 mphOvercast
5:53 PM33.1 °F24.1 °F70 %30.04 in7.0 miWNW (290°)19.6 mph27.6 mph0.00 inSnowLight Snow
6:50 PM32.0 °F24.8 °F75 %30.04 in9.0 miWNW (290°)19.6 mph27.6 mph0.00 inOvercast
6:53 PM32.0 °F25.0 °F75 %30.05 in10.0 miWNW (290°)18.4 mph27.6 mph0.00 inOvercast
7:14 PM33.8 °F24.8 °F70 %30.05 in10.0 miWNW (290°)19.6 mph31.1 mphOvercast
7:24 PM33.8 °F24.8 °F70 %30.05 in10.0 miWNW (300°)23.0 mph35.7 mphOvercast
7:53 PM32.0 °F25.0 °F75 %30.07 in7.0 miWNW (300°)17.3 mph28.8 mph0.00 inSnowLight Snow
8:53 PM33.1 °F24.1 °F70 %30.08 in10.0 miWNW (300°)19.6 mph25.3 mph0.00 inOvercast
9:53 PM34.0 °F24.1 °F67 %30.10 in10.0 miWNW (300°)23.0 mph33.4 mphOvercast
10:03 PM33.8 °F24.8 °F70 %30.10 in8.0 miNW (310°)19.6 mph31.1 mph0.00 inSnowLight Snow
10:24 PM33.8 °F23.0 °F65 %30.11 in10.0 miNW (320°)21.9 mph33.4 mph0.00 inOvercast
10:53 PM33.1 °F25.0 °F72 %30.12 in8.0 miWNW (300°)19.6 mph36.8 mph0.00 inOvercast
11:18 PM33.8 °F24.8 °F70 %30.12 in10.0 miNW (320°)24.2 mph29.9 mph0.00 inOvercast
11:53 PM33.1 °F25.0 °F72 %30.13 in9.0 miNW (310°)18.4 mph0.00 inOvercast
Hourly data recorded from KCPS, located miles away from St. Louis - Saint Louis University, Missouri







STORIES FROM OUR PARTNERS